Time,TemperatureF,DewpointF,PressureIn,WindDirection,WindDirectionDegrees,WindSpeedMPH,WindSpeedGustMPH,Humidity,HourlyPrecipIn,Conditions,Clouds,dailyrainin,SolarRadiationWatts/m^2,SoftwareType,DateUTC
2013-02-24 00:11:00,67.2,65.0,29.97,SW,226,0.0,1.0,93,0.00,,,0.00,0,weatherlink.com 1.10,2013-02-24 05:11:00,
2013-02-24 00:26:00,66.8,65.0,29.97,SW,226,0.0,1.0,94,0.00,,,0.00,0,weatherlink.com 1.10,2013-02-24 05:26:00,
2013-02-24 00:42:00,66.6,65.0,29.97,SW,223,1.0,3.0,94,0.00,,,0.00,0,weatherlink.com 1.10,2013-02-24 05:42:00,
2013-02-24 00:57:00,66.3,65.0,29.96,SW,223,0.0,1.0,94,0.00,,,0.00,0,weatherlink.com 1.10,2013-02-24 05:57:00,
2013-02-24 01:11:00,66.1,65.0,29.96,SSW,209,1.0,2.0,95,0.00,,,0.00,0,weatherlink.com 1.10,2013-02-24 06:11:00,
2013-02-24 01:26:00,66.1,65.0,29.96,SSW,211,0.0,3.0,95,0.00,,,0.00,0,weatherlink.com 1.10,2013-02-24 06:26:00,
2013-02-24 01:41:00,66.0,65.0,29.95,SSW,211,1.0,2.0,95,0.00,,,0.00,0,weatherlink.com 1.10,2013-02-24 06:41:00,
2013-02-24 01:58:00,66.2,65.0,29.95,SW,230,0.0,1.0,96,0.00,,,0.00,0,weatherlink.com 1.10,2013-02-24 06:58:00,
2013-02-24 02:12:00,66.8,66.0,29.95,SW,230,0.0,2.0,96,0.00,,,0.00,0,weatherlink.com 1.10,2013-02-24 07:12:00,
2013-02-24 02:27:00,67.4,67.0,29.94,SW,233,2.0,3.0,97,0.00,,,0.00,0,weatherlink.com 1.10,2013-02-24 07:27:00,
2013-02-24 02:42:00,67.7,67.0,29.94,SSW,208,3.0,3.0,97,0.00,,,0.00,0,weatherlink.com 1.10,2013-02-24 07:42:00,
2013-02-24 02:57:00,67.9,67.0,29.94,SSW,208,3.0,7.0,97,0.00,,,0.00,0,weatherlink.com 1.10,2013-02-24 07:57:00,
2013-02-24 03:12:00,67.8,67.0,29.94,SSE,166,4.0,6.0,97,0.00,,,0.00,0,weatherlink.com 1.10,2013-02-24 08:12:00,
2013-02-24 03:42:00,67.7,67.0,29.94,SSW,198,1.0,3.0,96,0.00,,,0.00,0,weatherlink.com 1.10,2013-02-24 08:42:00,
2013-02-24 03:59:00,67.7,67.0,29.93,SW,221,3.0,6.0,96,0.00,,,0.00,0,weatherlink.com 1.10,2013-02-24 08:59:00,
2013-02-24 04:13:00,67.4,66.0,29.93,SW,232,2.0,4.0,96,0.00,,,0.00,0,weatherlink.com 1.10,2013-02-24 09:13:00,
2013-02-24 04:29:00,67.3,66.0,29.93,SSW,198,2.0,3.0,96,0.00,,,0.00,0,weatherlink.com 1.10,2013-02-24 09:29:00,
2013-02-24 04:43:00,67.2,66.0,29.93,SW,228,1.0,5.0,96,0.00,,,0.00,0,weatherlink.com 1.10,2013-02-24 09:43:00,
2013-02-24 04:58:00,67.2,66.0,29.93,SSW,202,2.0,5.0,96,0.00,,,0.00,0,weatherlink.com 1.10,2013-02-24 09:58:00,
2013-02-24 05:13:00,67.1,66.0,29.93,SW,223,2.0,5.0,96,0.00,,,0.00,0,weatherlink.com 1.10,2013-02-24 10:13:00,
2013-02-24 05:28:00,67.1,66.0,29.93,SW,225,1.0,5.0,96,0.00,,,0.00,0,weatherlink.com 1.10,2013-02-24 10:28:00,
2013-02-24 05:43:00,67.1,66.0,29.95,WSW,239,2.0,4.0,96,0.00,,,0.00,0,weatherlink.com 1.10,2013-02-24 10:43:00,
2013-02-24 05:58:00,67.0,66.0,29.95,SW,232,1.0,5.0,96,0.00,,,0.00,0,weatherlink.com 1.10,2013-02-24 10:58:00,
2013-02-24 06:13:00,67.1,66.0,29.95,SSW,211,3.0,4.0,96,0.00,,,0.00,0,weatherlink.com 1.10,2013-02-24 11:13:00,
2013-02-24 06:29:00,67.0,66.0,29.96,WSW,255,2.0,6.0,96,0.00,,,0.00,0,weatherlink.com 1.10,2013-02-24 11:29:00,
2013-02-24 06:44:00,66.8,65.0,29.97,WSW,256,1.0,5.0,95,0.00,,,0.00,0,weatherlink.com 1.10,2013-02-24 11:44:00,
2013-02-24 06:59:00,66.8,65.0,29.97,SW,235,1.0,3.0,95,0.00,,,0.00,5,weatherlink.com 1.10,2013-02-24 11:59:00,
2013-02-24 07:14:00,66.9,66.0,29.98,SW,221,0.0,5.0,95,0.00,,,0.00,11,weatherlink.com 1.10,2013-02-24 12:14:00,
2013-02-24 07:29:00,67.1,66.0,29.98,WSW,238,2.0,6.0,95,0.00,,,0.00,32,weatherlink.com 1.10,2013-02-24 12:29:00,
2013-02-24 07:44:00,67.3,66.0,29.99,SSW,212,1.0,5.0,95,0.00,,,0.00,40,weatherlink.com 1.10,2013-02-24 12:44:00,
2013-02-24 08:00:00,67.7,66.0,29.99,South,188,2.0,6.0,94,0.00,,,0.00,74,weatherlink.com 1.10,2013-02-24 13:00:00,
2013-02-24 08:14:00,67.9,66.0,30.00,SW,221,4.0,7.0,93,0.00,,,0.00,56,weatherlink.com 1.10,2013-02-24 13:14:00,
2013-02-24 08:31:00,68.6,67.0,30.00,South,182,2.0,6.0,93,0.00,,,0.00,109,weatherlink.com 1.10,2013-02-24 13:31:00,
2013-02-24 08:46:00,68.8,66.0,30.00,SW,234,2.0,9.0,91,0.00,,,0.00,125,weatherlink.com 1.10,2013-02-24 13:46:00,
2013-02-24 09:00:00,69.7,67.0,30.00,SSW,194,1.0,9.0,91,0.00,,,0.00,220,weatherlink.com 1.10,2013-02-24 14:00:00,
2013-02-24 09:15:00,70.1,67.0,30.00,South,189,6.0,6.0,90,0.00,,,0.00,294,weatherlink.com 1.10,2013-02-24 14:15:00,
2013-02-24 09:31:00,71.1,67.0,30.00,SW,224,4.0,7.0,88,0.00,,,0.00,376,weatherlink.com 1.10,2013-02-24 14:31:00,
2013-02-24 09:46:00,74.5,69.0,30.01,SSW,192,3.0,8.0,84,0.00,,,0.00,714,weatherlink.com 1.10,2013-02-24 14:46:00,
2013-02-24 10:00:00,75.0,69.0,30.01,SSE,158,4.0,7.0,82,0.00,,,0.00,457,weatherlink.com 1.10,2013-02-24 15:00:00,
2013-02-24 10:15:00,76.8,70.0,30.01,South,187,2.0,6.0,79,0.00,,,0.00,214,weatherlink.com 1.10,2013-02-24 15:15:00,
2013-02-24 10:30:00,77.6,70.0,30.01,North,355,2.0,6.0,77,0.00,,,0.00,323,weatherlink.com 1.10,2013-02-24 15:30:00,
2013-02-24 10:47:00,77.3,70.0,30.01,SSE,168,1.0,5.0,78,0.00,,,0.00,394,weatherlink.com 1.10,2013-02-24 15:47:00,
2013-02-24 11:01:00,77.8,70.0,30.00,SSE,159,2.0,8.0,76,0.00,,,0.00,473,weatherlink.com 1.10,2013-02-24 16:01:00,
2013-02-24 11:16:00,78.1,70.0,30.01,WSW,254,5.0,6.0,75,0.00,,,0.00,404,weatherlink.com 1.10,2013-02-24 16:16:00,
2013-02-24 11:31:00,79.0,70.0,30.00,SSW,194,1.0,7.0,74,0.00,,,0.00,350,weatherlink.com 1.10,2013-02-24 16:31:00,
2013-02-24 11:46:00,81.5,73.0,29.99,East,80,1.0,6.0,74,0.00,,,0.00,802,weatherlink.com 1.10,2013-02-24 16:46:00,
2013-02-24 12:01:00,83.2,71.0,29.98,SW,221,3.0,6.0,66,0.00,,,0.00,900,weatherlink.com 1.10,2013-02-24 17:01:00,
2013-02-24 12:16:00,83.9,70.0,29.98,WSW,258,1.0,6.0,63,0.00,,,0.00,902,weatherlink.com 1.10,2013-02-24 17:16:00,
2013-02-24 12:32:00,82.3,70.0,29.97,WSW,242,2.0,7.0,67,0.00,,,0.00,197,weatherlink.com 1.10,2013-02-24 17:32:00,
2013-02-24 12:47:00,83.5,71.0,29.96,WSW,244,2.0,5.0,65,0.00,,,0.00,819,weatherlink.com 1.10,2013-02-24 17:47:00,
2013-02-24 13:02:00,83.5,70.0,29.96,West,265,0.0,7.0,63,0.00,,,0.00,207,weatherlink.com 1.10,2013-02-24 18:02:00,
2013-02-24 13:17:00,83.2,70.0,29.95,SW,224,3.0,7.0,65,0.00,,,0.00,868,weatherlink.com 1.10,2013-02-24 18:17:00,
2013-02-24 13:32:00,83.4,69.0,29.95,WSW,248,2.0,5.0,62,0.00,,,0.00,255,weatherlink.com 1.10,2013-02-24 18:32:00,
2013-02-24 13:47:00,83.4,67.0,29.95,SSW,201,2.0,7.0,59,0.00,,,0.00,334,weatherlink.com 1.10,2013-02-24 18:47:00,
2013-02-24 14:02:00,83.0,68.0,29.94,WNW,290,2.0,5.0,61,0.00,,,0.00,302,weatherlink.com 1.10,2013-02-24 19:02:00,
2013-02-24 14:17:00,84.2,69.0,29.94,WNW,285,3.0,4.0,61,0.00,,,0.00,246,weatherlink.com 1.10,2013-02-24 19:17:00,
2013-02-24 14:32:00,83.7,69.0,29.93,NNE,19,4.0,5.0,61,0.00,,,0.00,209,weatherlink.com 1.10,2013-02-24 19:32:00,
2013-02-24 14:47:00,83.1,68.0,29.93,North,9,1.0,4.0,60,0.00,,,0.00,186,weatherlink.com 1.10,2013-02-24 19:47:00,
2013-02-24 15:03:00,82.7,68.0,29.93,NNE,12,1.0,4.0,61,0.00,,,0.00,111,weatherlink.com 1.10,2013-02-24 20:03:00,
2013-02-24 15:18:00,81.7,68.0,29.94,North,360,6.0,13.0,64,0.00,,,0.00,118,weatherlink.com 1.10,2013-02-24 20:18:00,
2013-02-24 15:33:00,79.2,71.0,29.94,North,5,5.0,9.0,75,0.00,,,0.00,214,weatherlink.com 1.10,2013-02-24 20:33:00,
2013-02-24 15:48:00,77.7,71.0,29.94,North,5,4.0,9.0,79,0.00,,,0.00,134,weatherlink.com 1.10,2013-02-24 20:48:00,
2013-02-24 16:03:00,77.2,70.0,29.94,ENE,75,3.0,4.0,78,0.00,,,0.00,118,weatherlink.com 1.10,2013-02-24 21:03:00,
2013-02-24 16:18:00,77.5,69.0,29.94,North,5,2.0,6.0,76,0.00,,,0.00,183,weatherlink.com 1.10,2013-02-24 21:18:00,
2013-02-24 16:33:00,77.4,70.0,29.94,North,355,3.0,11.0,77,0.00,,,0.00,146,weatherlink.com 1.10,2013-02-24 21:33:00,
2013-02-24 16:48:00,76.3,69.0,29.94,North,355,4.0,9.0,79,0.00,,,0.00,135,weatherlink.com 1.10,2013-02-24 21:48:00,
2013-02-24 17:03:00,75.6,70.0,29.95,North,11,3.0,7.0,82,0.00,,,0.00,102,weatherlink.com 1.10,2013-02-24 22:03:00,
2013-02-24 17:19:00,74.2,69.0,29.95,NNW,348,2.0,9.0,83,0.00,,,0.00,69,weatherlink.com 1.10,2013-02-24 22:19:00,
2013-02-24 17:34:00,72.9,68.0,29.95,North,355,5.0,7.0,84,0.00,,,0.00,32,weatherlink.com 1.10,2013-02-24 22:34:00,
2013-02-24 17:49:00,72.1,68.0,29.95,North,360,1.0,3.0,86,0.00,,,0.00,39,weatherlink.com 1.10,2013-02-24 22:49:00,
2013-02-24 18:04:00,71.5,67.0,29.95,NNE,29,3.0,5.0,86,0.00,,,0.00,5,weatherlink.com 1.10,2013-02-24 23:04:00,
2013-02-24 18:19:00,71.0,67.0,29.96,NNW,348,4.0,5.0,87,0.00,,,0.00,0,weatherlink.com 1.10,2013-02-24 23:19:00,
2013-02-24 18:34:00,70.5,67.0,29.96,North,355,0.0,4.0,88,0.00,,,0.00,0,weatherlink.com 1.10,2013-02-24 23:34:00,
2013-02-24 18:49:00,70.1,67.0,29.96,ENE,72,1.0,3.0,88,0.00,,,0.00,0,weatherlink.com 1.10,2013-02-24 23:49:00,
2013-02-24 19:04:00,69.9,67.0,29.97,ENE,59,0.0,3.0,89,0.00,,,0.00,0,weatherlink.com 1.10,2013-02-25 00:04:00,
2013-02-24 19:19:00,69.7,67.0,29.98,ESE,107,3.0,3.0,90,0.00,,,0.00,0,weatherlink.com 1.10,2013-02-25 00:19:00,
2013-02-24 19:35:00,69.7,67.0,29.97,North,350,0.0,3.0,90,0.00,,,0.00,0,weatherlink.com 1.10,2013-02-25 00:35:00,
2013-02-24 19:50:00,69.8,67.0,29.97,NNW,341,1.0,7.0,90,0.00,,,0.00,0,weatherlink.com 1.10,2013-02-25 00:50:00,
2013-02-24 20:05:00,69.8,67.0,29.98,East,79,0.0,6.0,90,0.00,,,0.00,0,weatherlink.com 1.10,2013-02-25 01:05:00,
2013-02-24 20:20:00,69.8,67.0,29.99,NE,35,2.0,5.0,90,0.00,,,0.00,0,weatherlink.com 1.10,2013-02-25 01:20:00,
2013-02-24 20:35:00,69.9,67.0,30.00,North,5,2.0,5.0,90,0.00,,,0.00,0,weatherlink.com 1.10,2013-02-25 01:35:00,
2013-02-24 20:50:00,69.8,67.0,29.99,ESE,115,0.0,4.0,90,0.00,,,0.00,0,weatherlink.com 1.10,2013-02-25 01:50:00,
2013-02-24 21:05:00,69.8,67.0,30.00,East,86,0.0,3.0,90,0.00,,,0.00,0,weatherlink.com 1.10,2013-02-25 02:05:00,
2013-02-24 21:20:00,69.8,67.0,30.00,ENE,64,0.0,2.0,90,0.00,,,0.00,0,weatherlink.com 1.10,2013-02-25 02:20:00,
2013-02-24 21:35:00,69.7,67.0,30.00,ENE,78,0.0,2.0,91,0.00,,,0.00,0,weatherlink.com 1.10,2013-02-25 02:35:00,
2013-02-24 21:50:00,69.7,67.0,29.99,East,79,0.0,1.0,91,0.00,,,0.00,0,weatherlink.com 1.10,2013-02-25 02:50:00,
2013-02-24 22:06:00,69.6,67.0,29.99,East,79,0.0,1.0,91,0.00,,,0.00,0,weatherlink.com 1.10,2013-02-25 03:06:00,
2013-02-24 22:21:00,69.4,67.0,29.98,East,79,0.0,1.0,91,0.00,,,0.00,0,weatherlink.com 1.10,2013-02-25 03:21:00,
2013-02-24 22:36:00,69.2,67.0,29.98,East,79,0.0,1.0,92,0.00,,,0.00,0,weatherlink.com 1.10,2013-02-25 03:36:00,
2013-02-24 22:52:00,68.9,67.0,29.96,East,79,0.0,0.0,92,0.00,,,0.00,0,weatherlink.com 1.10,2013-02-25 03:52:00,
2013-02-24 23:06:00,68.8,67.0,29.96,East,79,0.0,0.0,93,0.00,,,0.00,0,weatherlink.com 1.10,2013-02-25 04:06:00,
2013-02-24 23:21:00,68.8,67.0,29.96,ENE,78,1.0,2.0,93,0.00,,,0.00,0,weatherlink.com 1.10,2013-02-25 04:21:00,
2013-02-24 23:36:00,68.8,67.0,29.95,ENE,78,0.0,1.0,93,0.00,,,0.00,0,weatherlink.com 1.10,2013-02-25 04:36:00,
2013-02-24 23:51:00,68.5,66.0,29.95,ENE,78,0.0,1.0,92,0.00,,,0.00,0,weatherlink.com 1.10,2013-02-25 04:51:00,